Regional Weather Roundup
Issued by NWS Wakefield, VA

Home | Current Version | Previous Version | Text Only | Print | Product List | Glossary Off
Versions: 1 2 3 4 5 6 7 8 9 10 11 12 13 14 15 16 17 18 19 20 21 22 23 24 25 26 27 28 29 30 31 32 33 34 35 36 37 38 39 40 41 42 43 44 45 46 47 48 49 50

000
ASUS41 KAKQ 041015
RWRAKQ

REGIONAL WEATHER ROUNDUP
NATIONAL WEATHER SERVICE WAKEFIELD VA
600 AM EDT MON MAY 04 2015

Note: "fair" indicates few or no clouds below 12,000 feet with no
significant weather and/or obstructions to visibility. * = Denotes
station may not report precipitation (e.g., rain,snow,etc.),
thunder or fog.

VAZ042-051-052>054-056-041100-
NORTHERN VIRGINIA

CITY           SKY/WX    TMP DP  RH WIND       PRES   REMARKS
WASH NATIONAL  PTCLDY    58  50  75 SW5       30.21R
DULLES         PTCLDY    54  44  69 S3        30.19S
FORT BELVOIR   PTCLDY    47  46  95 CALM      30.20S
QUANTICO       PTCLDY    55  49  80 SW3       30.22R
FREDERICKSBRG* MOCLDY    52  52 100 CALM      30.21S
STAFFORD*      MOCLDY    46  32  58 CALM      30.25R
WARRENTON      PTCLDY    48  47  97 CALM      30.20S
CULPEPER*      NOT AVBL
MANASSAS*      PTCLDY    50  48  93 CALM      30.20S
LEESBURG*      CLEAR     50  48  93 CALM      30.21R
WINCHESTER     CLEAR     55  37  50 SW3       30.20R
FRONT ROYAL*   FAIR      52  43  71 S6        30.19R
LURAY*         FAIR      48  46  93 CALM      30.22R
$$

VAZ048-049-060>072-079>083-041100-
CENTRAL AND SOUTH CENTRAL VIRGINIA

CITY           SKY/WX    TMP DP  RH WIND       PRES   REMARKS
RICHMOND       PTCLDY    55  46  71 CALM      30.24R
CHESTERFIELD*  FAIR      57  39  51 CALM      30.25R
PETERSBURG*    CLEAR     50  47  87 CALM      30.25R
HANOVER        CLEAR     50  48  93 CALM      30.25R
TAPPAHANNOCK*  CLEAR     55  43  64 SW5       30.23R
QUINTON*       FAIR      49  47  92 CALM      30.24R
CHARLOTTSVILLE CLEAR     52  45  77 SW5       30.21R
GORDONSVILLE*  FAIR      48  46  92 CALM      30.21S
ORANGE*        PTCLDY    50  46  87 CALM      30.23R
LOUISA*        PTCLDY    57  46  67 SW3       30.21R
BUMPASS*       CLOUDY    52  48  86 MISG      30.22R
FARMVILLE*     CLEAR     49  49 100 CALM      30.23R
CREWE*         FAIR      54  49  81 CALM      30.24R
FORT PICKETT*  FAIR      49  48  96 SW5       30.24R
CHASE CITY*    FAIR      54  54 100 CALM      30.25R
CLARKSVILLE*   FAIR      52  50  93 CALM      30.24R
SOUTH HILL*    CLEAR     48  46  91 CALM      30.31R
LAWRENCEVILLE* FAIR      49  47  90 CALM      30.25R
EMPORIA*       CLEAR     43  43 100 CALM      30.27R
$$

VAZ088>098-041100-
SOUTHEAST VIRGINIA

CITY           SKY/WX    TMP DP  RH WIND       PRES   REMARKS
NORFOLK        CLEAR     61  45  55 SW8       30.24R
VIRGINIA BEACH PTCLDY    56  45  66 SW7       30.24R
NORFOLK NAVAL  PTCLDY    63  47  55 SW5       30.26R
WEST POINT*    CLEAR     59  47  64 SW6       30.26R
SALUDA*        FAIR      58  46  63 SW5       30.23R
NEWPORT NEWS   CLEAR     61  47  59 W5        30.25R
LANGLEY AFB    CLEAR     57  46  66 W8        30.23R
FORT EUSTIS    CLEAR     56  48  75 VRB6      30.23R
WILLIAMSBURG*  CLEAR     63  48  59 W5        30.26R
HR EXEC AP*    FAIR      46  43  87 CALM      30.27R
FRANKLIN*      PTCLDY    49  47  92 CALM      30.26R
WAKEFIELD      CLEAR     50  47  89 CALM      30.25R
$$

VAZ020-022-025-037-045-041100-
WEST CENTRAL AND SOUTHWEST VIRGINIA

CITY           SKY/WX    TMP DP  RH WIND       PRES   REMARKS
STAUNTON*      CLEAR     43  41  91 CALM      30.24S
WAYNESBORO*    FAIR      47  42  82 SE3       30.23S
HOT SPRINGS VA CLEAR     55  42  63 SW8       30.27R
LYNCHBURG      CLEAR     47  46  97 CALM      30.24R
DANVILLE       CLEAR     49  46  90 CALM      30.24R
SOUTH BOSTON*  FAIR      47  45  95 CALM      30.24S
MARTINSVILLE   PTCLDY    46  46 100 CALM      30.27R
ROANOKE        CLEAR     49  46  90 CALM      30.25R
BLACKSBURG     CLEAR     46  44  93 CALM      30.28S
DUBLIN*        CLEAR     49  48  96 CALM      30.27R
MARION*        CLEAR     47  44  91 CALM      30.29R
HILLSVILLE*    CLEAR     57  46  68 S3        30.27R
RICHLANDS*     FAIR      56  33  42 CALM      30.26R
WISE*          CLEAR     54  41  62 SW3       30.27R
ABINGDON*      MOCLDY    55  47  75 CALM      30.25R
$$

MDZ021>025-VAZ099-100-041100-
SOUTHERN MARYLAND AND THE DELMARVA PENINSULA

CITY           SKY/WX    TMP DP  RH WIND       PRES   REMARKS
PATUXENT RIVER PTCLDY    59  46  62 SW10      30.21R
BAY BRIDGE APT   N/A    N/A N/A N/A CALM      30.20R
LEONARDTOWN    CLEAR     52  45  76 CALM      30.23R
DOVER          CLEAR     56  51  84 SW2       30.16R
GEORGETOWN     CLEAR     51  47  86 MISG      30.22R
EASTON         CLEAR     55  50  85 CALM      30.23S
CAMBRIDGE      CLEAR     52  46  82 SE3       30.21R
SALISBURY      CLEAR     54  48  80 CALM      30.22R
OCEAN CITY     PTCLDY    50  48  93 CALM      30.22R
WALLOPS ISLAND CLEAR     61  50  67 W9        30.22R
ACCOMACK*      CLEAR     59  50  72 W6        30.23R
$$

NCZ012>017-030>032-041100-
NORTH CENTRAL AND EASTERN NORTH CAROLINA

CITY           SKY/WX    TMP DP  RH WIND       PRES   REMARKS
ROANOKE RAPIDS FAIR      50  46  87 CALM      30.26R
RALEIGH        PTCLDY    54  52  93 CALM      30.26R
ELIZABETH CITY CLEAR     55  49  80 W5        30.26R
AHOSKIE*       CLOUDY    52  47  84 CALM      30.27R
EDENTON*       PTCLDY    53  51  92 CALM      30.26R
CURRITUCK*     CLEAR     57  46  67 SW5       30.26R
KILL DEVIL HLS CLEAR     60  53  77 W5        30.25R
MANTEO         CLEAR     59  53  80 W3        30.26R
CAPE HATTERAS  CLEAR     55  55 100 W5        30.26R
TARBORO*       CLOUDY    50  49  95 CALM      30.27R
GOLDSBORO      PTCLDY    51  49  93 CALM      30.24R
WASHINGTON       N/A     53  50  90 CALM      30.27R
GREENVILLE     PTCLDY    52  52 100 CALM      30.27R
NEW BERN       CLEAR     51  48  89 CALM      30.27R
WILMINGTON     CLEAR     52  50  93 CALM      30.26R
$$

VAZ048-041100-
ELSEWHERE

CITY           SKY/WX    TMP DP  RH WIND       PRES   REMARKS
HARRISBURG PA  PTCLDY    53  47  79 CALM      30.18R
BALTIMORE      PTCLDY    50  45  83 CALM      30.19R
ANNAPOLIS      PTCLDY    56  51  84 CALM      30.20R
ANDREWS AFB    CLEAR     56  45  65 SW6       30.20R
PHILADELPHIA   PTCLDY    56  48  74 SW3       30.20R
HENDERSON NC   CLEAR     53  49  88 SW6       30.25R
GREENSBORO     PTCLDY    57  51  80 SW3       30.24R
ROCKY MOUNT    MOCLDY    53  50  89 CALM      30.26R
$$

VAZ100-041100-
MARINE

STATION/POSITION TIME  TEMP    WIND        PRES    WAVE   SWELL
                       AIR SEA DIR/SP/G            HT/PER HT/PER
                 (UTC) (F)     (DEG/KT/KT) (MB)    (FT/S) (FT/S)
BRANDYWINE LGT   0900   61 54  230/  8/  9 1022.3R
CAPE MAY NJ      0900   56 58  160/  4/  5 1021.9S
LEWES DE         0900   61 54  220/  6/  9 1022.1R
15NM E FENWICK I 0950   54 51              1022.8R   4/12
OCEAN-CITY-INLET 0900   56 58  240/  3/  4 1022.4R
WACHAPREAGUE VA  0900   60 65  260/  3/  4 1023.2R
THOMAS POINT MD  1000   62 59  190/  7/  7 1023.3R
GOOSES REEF MD   1000   61 59                N/A     1
COVE POINT MD    0900   63     270/ 13/ 14 1022.9R
SOLOMONS ISLAND  0900      60                N/A
BISHOPS HEAD MD  0900   63 63  240/  8/ 10 1022.3R
PINEY POINT MD   0900          280/  2/  4   N/A
CAMBRIDGE MD     0900   57 62   CALM  /  1 1022.3R
LEWISETTA VA     0900   62 63              1022.7R
RAPPAHANNOCK LGT 0900          220/ 10/ 11 1023.6R
YORK RVR RNG VA  0900   63     250/ 12/ 14 1022.7R
YORKTOWN VA      0900   63 61  240/ 12/ 15 1023.0R
JAMESTOWN VA     1000   59 63  280/  4/  8 1023.4R
DOMINION TERM VA 0900   63     240/ 11/ 13 1023.6R
KIPTOPEKE VA     0900      63  250/  7/  9   N/A
CHES BAY BRIDGE  0900   63 59  230/ 13/ 15 1023.2R
CAPE HENRY VA    0900   63     250/  9/ 12 1022.4R
CHESAPEAKE LGHT  0900   61     250/ 13/ 14 1024.3R
WILLOUBY STN VA  0900   62     240/  9/  9 1024.3R
S CRANEY ISL VA  0900          230/  6/ 11 1023.6R
CAPE HENRY BUOY  0928      55                N/A     3/ 9   2/11
1ST LANDING BUOY 1000      58                N/A     1/ 4
CAPE CHARLES BUO 0926      55                N/A     3/12   3/12
OFFSHORE WE BUOY 0911      52                N/A     3/ 9   3/ 9
64NM E OF VA BCH 0950   60 60  250/  8/ 10 1023.9R   4/ 9   5/ 9
DUCK PIER NC     0900   62 55  210/  5/  6 1023.1S
44056 DUCK FRF   0911      57                N/A     3/11   2/11
OREGON INLET NC  0900   62 63  310/  2/  3 1024.4R
HATTERAS NC      0900   64 62  300/  4/  5 1024.0R
DIAMOND SHLS NC  0950   64     300/  6/ 10 1024.7R   4/11   3/11
CAPE LOOKOUT NC  1000   65     300/  2/  3 1024.6R
$$



USA.gov is the U.S. government's official web portal to all federal, state and local government web resources and services.